Back to catalog

STARLINK-30145

AliveCommunicationsVLEO
NORAD 57496·PAYLOAD·🇺🇸 United States

Launched Aug 7, 2023 from Cape Canaveral Space Force Station

Loading…

Next Passes (next 24 hours)

TLE

FreshSource: CelesTrak SupGP

Epoch: Sep 14, 2026, 22:32 UTC

1 57496C 23113B   26257.93937500 -.00036844  00000+0 -13339-2 0  2573
2 57496  43.0021  27.3061 0001500 266.0770 261.2069 15.27609786    14

Track STARLINK-30145 in real time with AllMySat

Download on the App Store